Tracking 30918 objects as of 2-Jul-2025
HD Live streaming from Space Station
objects crossing your sky now

STARLINK-4719

Track STARLINK-4719 now!
10-day predictions
STARLINK-4719 is classified as:


NORAD ID: 53774
Int'l Code: 2022-111B
Perigee: 545.9 km
Apogee: 547.9 km
Inclination: 53.2 °
Period: 95.4 minutes
Semi major axis: 6917 km
RCS: Unknown
Launch date: September 11, 2022
Source: United States (US)
Launch site: AIR FORCE EASTERN TEST RANGE (AFETR)
Your satellite tracking list
Your tracking list is empty




NASA's NSSDC Master Catalog

Two Line Element Set (TLE):
1 53774U 22111B   25183.14458079  .00001063  00000-0  84881-4 0  9993
2 53774  53.2180 328.7427 0001421  87.8539 272.2616 15.08837554154921
Source of the keplerian elements: AFSPC